[[{"header":{"parameterUnit":"m.s-1","parameterCategory":2,"la1":30.2991,"la2":30.254,"lo1":-89.0895,"lo2":-89.0444,"dy":0.0017,"dx":0.0017,"nx":28,"ny":28,"refTime":"2024-02-13T03:00:00:Z","depth":"0","parameterNumber":2,"parameterNumberName":"U-component_of_CURRENTS"},"data":[0,0,0,0,0,0,0,0,0,0,0,0,0,0,0,0,0,0,0,0,0,0,0,0,0,0,0,0,0,0,0,0,0,0,0,0,0,0,0,0,0,0,0,0,0,0,0,0,0,0,0,0,0,0,0,0,0,0,0.2184,0.2185,0,0.2203,0.2203,0.2203,0.2196,0.2195,0.2195,0.2195,0.2188,0.2188,0.2188,0,0,0,0,0,0,0,0,0,0,0,0,0,0.2142,0.2142,0.2184,0.2185,0.2185,0.2203,0.2203,0.2203,0.2196,0.2195,0.2195,0.2195,0.2188,0.2188,0.2188,0,0,0,0,0,0,0,0,0,0,0,0,0,0.2158,0.2142,0.2184,0.2185,0.2186,0.2203,0.2203,0.2203,0.2196,0.2195,0.2195,0.2195,0.2188,0.2188,0.2188,0.2195,0,0,0.2188,0.2188,0,0,0,0,0,0,0,0,0.2157,0.2159,0.2185,0.2185,0.2186,0.2198,0.2185,0.22,0.2196,0.219,0.2195,0.2195,0.2191,0.219,0.2192,0.2194,0.2194,0.2188,0.2188,0.2188,0.2188,0,0,0,0,0,0,0,0.2156,0.2158,0.2189,0.2185,0.2186,0.2185,0.2186,0.2188,0.219,0.219,0.219,0.2196,0.219,0.2192,0.2192,0.2194,0.2188,0.2188,0.2188,0.2188,0.2213,0.2214,0,0,0,0,0,0,0.2159,0.2158,0.2189,0.219,0.2173,0.2186,0.2188,0.2193,0.219,0.219,0.2196,0.2196,0.2192,0.2192,0.2191,0.2213,0.2188,0.2188,0.2188,0.2212,0.2213,0.2214,0,0,0,0,0,0,0.2158,0.2161,0.2188,0.2176,0.2179,0.2187,0.2193,0.2194,0.2198,0.2195,0.2194,0.2201,0.2192,0.2191,0.2198,0.2212,0.2188,0.2188,0.2212,0.2213,0.2214,0.2248,0,0,0,0,0,0,0.2156,0.2161,0.2166,0.2176,0.218,0.2202,0.2194,0.2194,0.2203,0.2202,0.2199,0.2198,0.2191,0.2198,0.2198,0.2212,0.2188,0.2211,0.2212,0.2213,0.2246,0.225,0.2253,0,0,0,0,0,0.2155,0.2162,0.2166,0.217,0.2187,0.2202,0.2204,0.2207,0.2204,0.2209,0.2207,0.2198,0.2206,0.2198,0.2198,0.2213,0.221,0.2212,0.2213,0.2244,0.2249,0.2253,0,0,0,0,0,0,0.2146,0.2162,0.2166,0.2178,0.2192,0.2202,0.2207,0.2211,0.2214,0.2213,0.2206,0.2205,0.2219,0.221,0.2203,0.2223,0.2207,0.2208,0.223,0.2235,0.2239,0.2262,0.2188,0,0,0,0,0,0.2147,0.2155,0.2173,0.2182,0.219,0.22,0.2206,0.2212,0.2217,0.2218,0.2217,0.2217,0.2225,0.2225,0.2229,0.2237,0.225,0.2247,0.225,0.2254,0.2273,0.23,0.2308,0.2219,0.2219,0.2219,0,0,0.2146,0.2157,0.2161,0.2181,0.2189,0.2208,0.2202,0.2216,0.2234,0.2217,0.2233,0.2232,0.2232,0.2245,0.225,0.2238,0.2286,0.2255,0.2258,0.2276,0.2302,0.2311,0.2319,0.222,0.222,0.2219,0,0,0.2152,0.2158,0.217,0.2184,0.2204,0.2214,0.222,0.2235,0.2242,0.2257,0.2255,0.2267,0.2265,0.2277,0.2281,0.2308,0.2308,0.2302,0.2336,0.2362,0.237,0.2377,0.2405,0.2414,0.2299,0.2299,0.2299,0,0.2154,0.2171,0.2176,0.2195,0.221,0.2219,0.2241,0.2253,0.2268,0.2283,0.2264,0.2293,0.2286,0.2323,0.233,0.2319,0.2333,0.2318,0.2368,0.2375,0.2382,0.2409,0.2419,0.2301,0.2301,0.2301,0.2301,0,0.2173,0.2188,0.2196,0.2224,0.2239,0.2258,0.228,0.2297,0.2302,0.2317,0.2349,0.2344,0.2365,0.236,0.2352,0.2399,0.2394,0.2373,0.2358,0.2393,0.2419,0.2429,0.2304,0.2303,0.2303,0.2302,0,0,0.218,0.2205,0.2209,0.2225,0.2258,0.2273,0.2308,0.2346,0.2377,0.2384,0.2422,0.2435,0.2438,0.2444,0.2438,0.2455,0.2506,0.2435,0.2435,0.2467,0.2571,0.2601,0.2614,0.2491,0.2493,0.2495,0.257,0,0.2198,0.2231,0.2241,0.2277,0.2299,0.232,0.2352,0.2387,0.2411,0.2447,0.246,0.2488,0.2469,0.2478,0.2498,0.251,0.2534,0.2489,0.253,0.2532,0.2557,0.2627,0.2701,0.2778,0.258,0.2582,0.2583,0,0.2222,0.2241,0.2275,0.231,0.2321,0.2342,0.24,0.2431,0.2488,0.2507,0.2546,0.2556,0.2602,0.2562,0.2622,0.2594,0.2595,0.2593,0.2595,0.2623,0.2581,0.2711,0.2803,0.2867,0.2598,0.2597,0.2595,0,0.2232,0.2266,0.2291,0.2305,0.2346,0.2367,0.2392,0.245,0.2494,0.2551,0.2593,0.2634,0.2672,0.268,0.2695,0.266,0.2752,0.2698,0.2729,0.273,0.2804,0.2809,0.2971,0.2741,0.2741,0.2741,0.2741,0,0.2253,0.2275,0.2294,0.231,0.235,0.2373,0.2431,0.2465,0.2531,0.2593,0.2627,0.2689,0.2704,0.2756,0.2737,0.279,0.2793,0.2769,0.2765,0.2817,0.2822,0.2887,0.2853,0.2744,0.2743,0.2743,0.2742,0,0.2265,0.2277,0.231,0.2343,0.2356,0.2385,0.2453,0.2492,0.2562,0.2647,0.267,0.2759,0.2837,0.2857,0.2887,0.2869,0.2857,0.2894,0.296,0.2963,0.3032,0.2994,0.2849,0.2778,0.2945,0.2946,0.2948,0,0.2276,0.2293,0.2328,0.2342,0.2355,0.2402,0.2432,0.2499,0.2549,0.269,0.2726,0.2843,0.2933,0.3021,0.3025,0.3044,0.293,0.3085,0.3028,0.3088,0.3042,0.278,0.2711,0.3137,0.314,0.3142,0.3144,0,0.2301,0.2309,0.2328,0.2355,0.2378,0.2416,0.2464,0.2511,0.2599,0.2695,0.2816,0.2907,0.3047,0.3137,0.3183,0.3177,0.3026,0.3128,0.3186,0.322,0.2949,0.2865,0.3027,0.3163,0.3161,0.316,0.3159,0.3158,0.2317,0.233,0.2346,0.2367,0.2387,0.241,0.2433,0.2503,0.2596,0.273,0.2844,0.3018,0.3237,0.3338,0.3285,0.3374,0.314,0.3377,0.3331,0.3061,0.2982,0.3188,0.3312,0.3311,0.331,0.331,0.3309,0,0.2332,0.2336,0.2355,0.2368,0.2367,0.2388,0.2435,0.246,0.2547,0.2745,0.2883,0.3221,0.3401,0.3512,0.3685,0.3647,0.3376,0.3595,0.3316,0.3238,0.3497,0.3508,0.3687,0.3687,0.3687,0.3687,0.3687,0.3687,0.234,0.2347,0.2347,0.234,0.234,0.2331,0.2344,0.2402,0.2533,0.2767,0.2988,0.3156,0.3517,0.3857,0.3968,0.3881,0.3623,0.3475,0.3339,0.3683,0.3659,0.3637,0.3648,0.3853,0.3853,0.3021,0.3016,0.3012]},{"header":{"parameterUnit":"m.s-1","parameterCategory":2,"la1":30.2991,"la2":30.254,"lo1":-89.0895,"lo2":-89.0444,"dy":0.0017,"dx":0.0017,"nx":28,"ny":28,"refTime":"2024-02-13T03:00:00:Z","depth":"0","parameterNumber":3,"parameterNumberName":"V-component_of_CURRENTS"},"data":[0,0,0,0,0,0,0,0,0,0,0,0,0,0,0,0,0,0,0,0,0,0,0,0,0,0,0,0,0,0,0,0,0,0,0,0,0,0,0,0,0,0,0,0,0,0,0,0,0,0,0,0,0,0,0,0,0,0,-0.0003,-0.0003,0,-0.0023,-0.0023,-0.0023,-0.0046,-0.0046,-0.0047,-0.0047,-0.008,-0.008,-0.0081,0,0,0,0,0,0,0,0,0,0,0,0,0,-0.0023,-0.0022,-0.0003,-0.0003,-0.0003,-0.0022,-0.0023,-0.0023,-0.0046,-0.0046,-0.0047,-0.0047,-0.0079,-0.008,-0.0081,0,0,0,0,0,0,0,0,0,0,0,0,0,-0.0026,-0.0022,-0.0003,-0.0017,-0.0018,-0.0022,-0.0023,-0.0023,-0.0046,-0.0046,-0.0047,-0.0047,-0.0079,-0.008,-0.0081,-0.0076,0,0,-0.0083,-0.0084,0,0,0,0,0,0,0,0,-0.0025,-0.0025,-0.0015,-0.0016,-0.0018,-0.0032,-0.0042,-0.0041,-0.0046,-0.0036,-0.0047,-0.0047,-0.0064,-0.0067,-0.0069,-0.0078,-0.0079,-0.0084,-0.0084,-0.0084,-0.0085,0,0,0,0,0,0,0,-0.0025,-0.0024,-0.0011,-0.0015,-0.0017,-0.0035,-0.0036,-0.0042,-0.0047,-0.0036,-0.0038,-0.004,-0.0065,-0.0068,-0.007,-0.008,-0.0084,-0.0084,-0.0085,-0.0085,-0.0093,-0.0093,0,0,0,0,0,0,-0.002,-0.0024,-0.001,-0.0011,-0.0023,-0.0034,-0.0035,-0.0027,-0.0047,-0.005,-0.0039,-0.0041,-0.0067,-0.0069,-0.0071,-0.0063,-0.0084,-0.0085,-0.0086,-0.0094,-0.0093,-0.0093,0,0,0,0,0,0,-0.002,-0.0018,-0.001,-0.0019,-0.0019,-0.0033,-0.0024,-0.0027,-0.0031,-0.0049,-0.0053,-0.0041,-0.0067,-0.007,-0.0074,-0.0064,-0.0086,-0.0086,-0.0094,-0.0094,-0.0093,-0.0048,0,0,0,0,0,0,-0.002,-0.0018,-0.0011,-0.0018,-0.0018,-0.0005,-0.0024,-0.0027,-0.0031,-0.0034,-0.0051,-0.0055,-0.0068,-0.0073,-0.0075,-0.0066,-0.0087,-0.0094,-0.0094,-0.0093,-0.005,-0.0046,-0.0043,0,0,0,0,0,-0.0021,-0.0005,-0.001,-0.0009,-0.0008,-0.0004,-0.0006,-0.0018,-0.0031,-0.0026,-0.0041,-0.0054,-0.0071,-0.0073,-0.0076,-0.0067,-0.0095,-0.0094,-0.0093,-0.0052,-0.0047,-0.0043,0,0,0,0,0,0,-0.0011,-0.0006,-0.0012,0.0004,0.0002,-0.0008,-0.0006,-0.0016,-0.0023,-0.0027,-0.0048,-0.0052,-0.0053,-0.0066,-0.0068,-0.0069,-0.0086,-0.0086,-0.0054,-0.0049,-0.0046,-0.0032,-0.0088,0,0,0,0,0,-0.0005,0.0008,0.0005,0.0017,0.0018,0.0005,0.0004,-0.0003,-0.0011,-0.0015,-0.0028,-0.0043,-0.0052,-0.0056,-0.0066,-0.0063,-0.0086,-0.006,-0.0057,-0.0054,-0.0045,-0.0078,-0.0076,-0.0091,-0.0091,-0.0091,0,0,0.0,0.0005,0.0012,0.002,0.0015,0.0027,0.0003,0.0007,0.0017,-0.0017,-0.0011,-0.0031,-0.0049,-0.0047,-0.0049,-0.0057,-0.0062,-0.0053,-0.005,-0.0043,-0.0077,-0.0075,-0.0074,-0.009,-0.0091,-0.0091,0,0,0.0022,0.0024,0.0043,0.0046,0.0047,0.0043,0.0045,0.0039,0.0035,0.0038,0.0014,-0.0,-0.0011,-0.0022,-0.003,-0.0013,-0.0044,-0.0018,0.0014,-0.0017,-0.0016,-0.0016,-0.0043,-0.0045,-0.0014,-0.0014,-0.0014,0,0.0026,0.0055,0.0047,0.0067,0.0075,0.0053,0.0075,0.007,0.0063,0.0065,0.0046,0.0022,0.0002,0.0004,0.0008,-0.0005,-0.0027,0.0001,-0.0013,-0.0012,-0.0013,-0.0041,-0.0044,-0.0012,-0.0012,-0.0012,-0.0012,0,0.0065,0.0086,0.0097,0.0117,0.0124,0.0139,0.0134,0.0137,0.0124,0.0116,0.011,0.0076,0.0064,0.0051,0.0035,0.003,0.0013,-0.0006,-0.0022,-0.0008,-0.0039,-0.0043,-0.0008,-0.0009,-0.001,-0.001,0,0,0.0081,0.0119,0.0123,0.0146,0.0155,0.0168,0.0183,0.0195,0.0212,0.0182,0.0196,0.0162,0.0136,0.0125,0.0095,0.0066,0.004,0.0035,0.0033,0.0012,-0.0026,-0.0042,-0.0048,0.0018,0.0017,0.0017,-0.0047,0,0.0113,0.017,0.0175,0.0223,0.0251,0.0242,0.0265,0.0269,0.0261,0.0266,0.0219,0.0216,0.0166,0.0161,0.0123,0.0066,0.0033,0.006,-0.0038,-0.0041,-0.0055,-0.0053,-0.0018,-0.0072,-0.0051,-0.0052,-0.0052,0,0.0151,0.0187,0.0245,0.0293,0.0303,0.0325,0.0359,0.0378,0.0373,0.0365,0.034,0.0301,0.026,0.0211,0.0112,0.0132,0.006,0.0005,0.0001,-0.0031,-0.0064,-0.0083,-0.0081,-0.0222,-0.0059,-0.0058,-0.0058,0,0.0179,0.0235,0.0287,0.0303,0.0349,0.0373,0.0395,0.0408,0.0442,0.0427,0.0442,0.0372,0.0352,0.0247,0.0128,0.012,0.0013,-0.0014,-0.0099,-0.0101,-0.0098,-0.01,-0.024,-0.0089,-0.0089,-0.0089,-0.0089,0,0.0216,0.0256,0.0307,0.0338,0.0406,0.0418,0.0485,0.0493,0.0521,0.0576,0.0497,0.0516,0.0359,0.0278,0.0154,0.002,0.0028,-0.009,-0.0118,-0.0082,-0.0081,-0.0226,-0.0328,-0.0091,-0.0091,-0.009,-0.009,0,0.0236,0.027,0.0336,0.0398,0.0424,0.0473,0.0555,0.0607,0.0618,0.0685,0.0685,0.0625,0.0524,0.0358,0.0192,0.0069,-0.0162,-0.0123,-0.0069,-0.009,-0.0298,-0.0399,-0.0567,-0.0676,-0.0223,-0.0223,-0.0224,0,0.0251,0.0288,0.0383,0.0435,0.0466,0.0545,0.0611,0.0653,0.0717,0.0764,0.0805,0.0724,0.0709,0.0447,0.0198,-0.0029,-0.0186,-0.0158,-0.0171,-0.0305,-0.0438,-0.0492,-0.0577,-0.0152,-0.0152,-0.0152,-0.0152,0,0.0275,0.031,0.0371,0.0488,0.0567,0.0669,0.0763,0.0833,0.0899,0.0961,0.1031,0.1022,0.0778,0.0578,0.0242,0.0061,-0.0273,-0.0166,-0.0319,-0.0408,-0.0462,-0.058,-0.0118,-0.0152,-0.0152,-0.0152,-0.0152,-0.0152,0.0291,0.0344,0.0436,0.0547,0.065,0.0789,0.0894,0.1004,0.1133,0.1275,0.1236,0.1316,0.0987,0.0543,0.0219,-0.0265,-0.0294,-0.037,-0.0484,-0.0527,-0.0629,-0.0168,-0.0226,-0.0226,-0.0227,-0.0227,-0.0227,0,0.0315,0.0388,0.0492,0.064,0.0771,0.082,0.0999,0.1131,0.1312,0.1473,0.1567,0.1544,0.1086,0.0605,-0.0065,-0.0464,-0.064,-0.0685,-0.0756,-0.0834,-0.0421,-0.0413,-0.0497,-0.0497,-0.0496,-0.0496,-0.0496,-0.0496,0.0331,0.0437,0.0504,0.072,0.0833,0.1034,0.1154,0.1349,0.1526,0.1803,0.1952,0.2009,0.177,0.0488,-0.0411,-0.0717,-0.1056,-0.1108,-0.1294,-0.1,-0.0979,-0.0958,-0.0973,-0.1172,-0.1174,-0.1628,-0.1633,-0.1637]}],[{"header":{"parameterUnit":"m.s-1","parameterCategory":2,"la1":30.2991,"la2":30.254,"lo1":-89.0895,"lo2":-89.0444,"dy":0.0017,"dx":0.0017,"nx":28,"ny":28,"refTime":"2024-02-13T03:00:00:Z","depth":"2","parameterNumber":2,"parameterNumberName":"U-component_of_CURRENTS"},"data":[0,0,0,0,0,0,0,0,0,0,0,0,0,0,0,0,0,0,0,0,0,0,0,0,0,0,0,0,0,0,0,0,0,0,0,0,0,0,0,0,0,0,0,0,0,0,0,0,0,0,0,0,0,0,0,0,0,0,0.2133,0.2134,0,0.2151,0.2151,0.2151,0.2145,0.2145,0.2145,0.2145,0.2138,0.2138,0.2138,0,0,0,0,0,0,0,0,0,0,0,0,0,0.2091,0.2092,0.2133,0.2134,0.2134,0.2151,0.2151,0.2151,0.2145,0.2145,0.2145,0.2145,0.2138,0.2138,0.2138,0,0,0,0,0,0,0,0,0,0,0,0,0,0.2107,0.2092,0.2133,0.2135,0.2135,0.2151,0.2151,0.2151,0.2145,0.2145,0.2145,0.2145,0.2138,0.2138,0.2138,0.2144,0,0,0.2138,0.2138,0,0,0,0,0,0,0,0,0.2106,0.2108,0.2134,0.2135,0.2135,0.2148,0.2134,0.2148,0.2145,0.2139,0.2145,0.2144,0.2141,0.2141,0.2142,0.2144,0.2143,0.2138,0.2138,0.2138,0.2138,0,0,0,0,0,0,0,0.2105,0.2108,0.2138,0.2135,0.2136,0.2134,0.2136,0.2137,0.2139,0.214,0.214,0.2146,0.2141,0.2142,0.2142,0.2143,0.2138,0.2138,0.2138,0.2138,0.2163,0.2163,0,0,0,0,0,0,0.2108,0.2107,0.2138,0.2139,0.2122,0.2135,0.2137,0.2142,0.214,0.214,0.2146,0.2145,0.2142,0.2142,0.2141,0.2164,0.2138,0.2138,0.2138,0.2162,0.2163,0.2164,0,0,0,0,0,0,0.2107,0.2111,0.2137,0.2125,0.2128,0.2136,0.2142,0.2143,0.2148,0.2145,0.2144,0.2151,0.2142,0.2141,0.2148,0.2163,0.2138,0.2138,0.2161,0.2162,0.2163,0.2198,0,0,0,0,0,0,0.2106,0.211,0.2115,0.2125,0.2129,0.215,0.2143,0.2143,0.2153,0.2152,0.2149,0.2148,0.2141,0.2148,0.2148,0.2162,0.2138,0.2161,0.2162,0.2163,0.2196,0.22,0.2203,0,0,0,0,0,0.2104,0.2111,0.2115,0.2119,0.2136,0.2151,0.2153,0.2155,0.2153,0.2158,0.2157,0.2149,0.2156,0.2149,0.2148,0.2163,0.216,0.2161,0.2163,0.2194,0.2199,0.2203,0,0,0,0,0,0,0.2096,0.2112,0.2116,0.2128,0.2141,0.2151,0.2156,0.216,0.2164,0.2163,0.2156,0.2155,0.217,0.216,0.2153,0.2174,0.2157,0.2158,0.2181,0.2185,0.2189,0.2212,0.2138,0,0,0,0,0,0.2098,0.2105,0.2123,0.2132,0.2139,0.2149,0.2156,0.2161,0.2167,0.2168,0.2167,0.2167,0.2175,0.2175,0.2179,0.2187,0.22,0.2197,0.22,0.2204,0.2222,0.2249,0.2257,0.2168,0.2168,0.2168,0,0,0.2097,0.2107,0.2112,0.2131,0.2139,0.2158,0.2152,0.2166,0.2183,0.2167,0.2183,0.2182,0.2182,0.2195,0.22,0.2188,0.2235,0.2205,0.2208,0.2226,0.2251,0.226,0.2268,0.2169,0.2169,0.2169,0,0,0.2103,0.2109,0.2121,0.2135,0.2155,0.2164,0.2171,0.2185,0.2192,0.2207,0.2206,0.2217,0.2216,0.2227,0.2231,0.2258,0.2258,0.2252,0.2286,0.2311,0.2319,0.2326,0.2354,0.2364,0.2249,0.2249,0.2249,0,0.2105,0.2122,0.2127,0.2145,0.216,0.2169,0.2191,0.2202,0.2217,0.2233,0.2215,0.2243,0.2237,0.2272,0.228,0.2268,0.2282,0.2268,0.2317,0.2324,0.2331,0.2358,0.2368,0.2251,0.2251,0.2251,0.2251,0,0.2124,0.2139,0.2147,0.2174,0.2189,0.2208,0.2229,0.2247,0.2252,0.2267,0.2299,0.2294,0.2315,0.2309,0.2302,0.2349,0.2344,0.2322,0.2308,0.2342,0.2369,0.2378,0.2254,0.2253,0.2253,0.2252,0,0,0.2131,0.2156,0.216,0.2176,0.2208,0.2223,0.2257,0.2294,0.2325,0.2332,0.2371,0.2383,0.2387,0.2393,0.2387,0.2403,0.2455,0.2384,0.2385,0.2417,0.2519,0.2547,0.256,0.244,0.2442,0.2444,0.2519,0,0.2149,0.2181,0.2192,0.2227,0.2248,0.2269,0.23,0.2335,0.2359,0.2395,0.2408,0.2436,0.2417,0.2427,0.2447,0.2458,0.2483,0.2438,0.2478,0.248,0.2504,0.2573,0.2303,0.2351,0.2529,0.253,0.2531,0,0.2173,0.2191,0.2225,0.2259,0.227,0.2291,0.2348,0.2379,0.2435,0.2454,0.2494,0.2503,0.2549,0.251,0.257,0.2542,0.2543,0.2542,0.2544,0.2569,0.2527,0.2344,0.2361,0.2547,0.2546,0.2545,0.2544,0,0.2182,0.2216,0.2241,0.2254,0.2295,0.2316,0.2341,0.2398,0.2442,0.2499,0.2541,0.2581,0.2619,0.2627,0.2643,0.2608,0.2699,0.2645,0.2674,0.2675,0.2456,0.2437,0.2688,0.2688,0.2688,0.2688,0.2688,0,0.2203,0.2224,0.2244,0.226,0.2299,0.2322,0.238,0.2413,0.248,0.2541,0.2575,0.2636,0.2651,0.2702,0.2684,0.2736,0.274,0.2714,0.271,0.2462,0.2443,0.2615,0.2606,0.2691,0.269,0.2689,0.2689,0,0.2215,0.2227,0.2259,0.2292,0.2305,0.2334,0.2402,0.244,0.2511,0.2594,0.2618,0.2706,0.2783,0.2803,0.2833,0.2814,0.283,0.2838,0.256,0.2525,0.2774,0.2765,0.2882,0.2884,0.2886,0.2887,0.2888,0,0.2225,0.2242,0.2277,0.2291,0.2304,0.2352,0.2381,0.2448,0.2497,0.2637,0.2673,0.2788,0.2863,0.2949,0.287,0.2865,0.2914,0.2668,0.2564,0.2816,0.28,0.2789,0.2778,0.2269,0.2265,0.2262,0.2259,0,0.2248,0.2257,0.2276,0.2303,0.2326,0.2364,0.2412,0.2459,0.2546,0.2624,0.2744,0.2819,0.2884,0.277,0.2781,0.273,0.2647,0.2609,0.2928,0.2292,0.2252,0.2232,0.2238,0.223,0.2233,0.2235,0.2236,0.2237,0.2264,0.2277,0.2293,0.2315,0.2334,0.2356,0.2379,0.2373,0.2439,0.2445,0.2647,0.2617,0.2653,0.2508,0.2446,0.2363,0.2548,0.2428,0.2431,0.2439,0.2385,0.2353,0.2339,0.2342,0.2345,0.2348,0.235,0,0.2235,0.2285,0.2303,0.2315,0.2258,0.2334,0.238,0.227,0.2234,0.2254,0.2283,0.2103,0.2076,0.2106,0.1922,0.197,0.1849,0.192,0.1724,0.1757,0.1786,0.169,0.1464,0.1461,0.1459,0.1456,0,0,0.2233,0.2217,0.2216,0.2179,0.2221,0.2099,0.211,0.1956,0.1874,0.1721,0.1683,0.1824,0.2002,0.1654,0.166,0.1533,0.1609,0.1463,0.2174,0.1971,0.1995,0.2091,0.1987,0,0,0,0,0]},{"header":{"parameterUnit":"m.s-1","parameterCategory":2,"la1":30.2991,"la2":30.254,"lo1":-89.0895,"lo2":-89.0444,"dy":0.0017,"dx":0.0017,"nx":28,"ny":28,"refTime":"2024-02-13T03:00:00:Z","depth":"2","parameterNumber":3,"parameterNumberName":"V-component_of_CURRENTS"},"data":[0,0,0,0,0,0,0,0,0,0,0,0,0,0,0,0,0,0,0,0,0,0,0,0,0,0,0,0,0,0,0,0,0,0,0,0,0,0,0,0,0,0,0,0,0,0,0,0,0,0,0,0,0,0,0,0,0,0,0.0037,0.0037,0,0.0018,0.0017,0.0017,-0.0006,-0.0007,-0.0007,-0.0007,-0.004,-0.0041,-0.0041,0,0,0,0,0,0,0,0,0,0,0,0,0,0.0017,0.0017,0.0037,0.0037,0.0036,0.0018,0.0017,0.0017,-0.0006,-0.0007,-0.0007,-0.0008,-0.004,-0.0041,-0.0041,0,0,0,0,0,0,0,0,0,0,0,0,0,0.0014,0.0018,0.0037,0.0023,0.0021,0.0018,0.0017,0.0017,-0.0006,-0.0007,-0.0007,-0.0008,-0.004,-0.0041,-0.0041,-0.0036,0,0,-0.0044,-0.0044,0,0,0,0,0,0,0,0,0.0014,0.0015,0.0025,0.0024,0.0022,0.0008,-0.0002,-0.0001,-0.0006,0.0004,-0.0008,-0.0008,-0.0025,-0.0027,-0.003,-0.0037,-0.0039,-0.0044,-0.0045,-0.0045,-0.0045,0,0,0,0,0,0,0,0.0015,0.0015,0.0029,0.0025,0.0023,0.0004,0.0004,-0.0002,-0.0008,0.0003,0.0001,-0.0,-0.0026,-0.0029,-0.0031,-0.0039,-0.0044,-0.0045,-0.0045,-0.0046,-0.0053,-0.0053,0,0,0,0,0,0,0.002,0.0016,0.003,0.0028,0.0017,0.0005,0.0005,0.0013,-0.0007,-0.0011,0.0,-0.0001,-0.0027,-0.003,-0.0032,-0.0023,-0.0045,-0.0046,-0.0046,-0.0053,-0.0053,-0.0053,0,0,0,0,0,0,0.002,0.0022,0.003,0.0021,0.0021,0.0007,0.0015,0.0012,0.0008,-0.0009,-0.0013,-0.0002,-0.0028,-0.0031,-0.0034,-0.0025,-0.0046,-0.0047,-0.0054,-0.0053,-0.0053,-0.0008,0,0,0,0,0,0,0.002,0.0022,0.0029,0.0022,0.0022,0.0035,0.0016,0.0012,0.0008,0.0006,-0.0012,-0.0016,-0.0028,-0.0033,-0.0035,-0.0026,-0.0047,-0.0054,-0.0053,-0.0053,-0.001,-0.0006,-0.0003,0,0,0,0,0,0.0019,0.0035,0.0029,0.0031,0.0032,0.0036,0.0034,0.0021,0.0008,0.0014,-0.0001,-0.0015,-0.0032,-0.0033,-0.0036,-0.0027,-0.0054,-0.0054,-0.0053,-0.0012,-0.0007,-0.0003,0,0,0,0,0,0,0.0028,0.0033,0.0028,0.0043,0.0041,0.0032,0.0034,0.0024,0.0016,0.0012,-0.0009,-0.0013,-0.0014,-0.0027,-0.0028,-0.0029,-0.0046,-0.0046,-0.0014,-0.001,-0.0006,0.0007,-0.0048,0,0,0,0,0,0.0034,0.0048,0.0045,0.0057,0.0057,0.0045,0.0043,0.0037,0.0029,0.0024,0.0011,-0.0004,-0.0012,-0.0016,-0.0026,-0.0022,-0.0045,-0.002,-0.0017,-0.0014,-0.0005,-0.0037,-0.0036,-0.005,-0.005,-0.0051,0,0,0.0039,0.0044,0.0051,0.006,0.0055,0.0067,0.0043,0.0046,0.0056,0.0023,0.0028,0.0008,-0.001,-0.0008,-0.0009,-0.0017,-0.0022,-0.0013,-0.001,-0.0003,-0.0036,-0.0035,-0.0034,-0.005,-0.005,-0.005,0,0,0.0062,0.0063,0.0082,0.0086,0.0086,0.0082,0.0084,0.0078,0.0074,0.0077,0.0053,0.0039,0.0029,0.0017,0.001,0.0027,-0.0004,0.0022,0.0054,0.0023,0.0024,0.0024,-0.0003,-0.0005,0.0026,0.0026,0.0026,0,0.0065,0.0094,0.0086,0.0106,0.0114,0.0092,0.0114,0.0109,0.0102,0.0105,0.0085,0.0062,0.0041,0.0044,0.0048,0.0035,0.0013,0.0041,0.0028,0.0028,0.0028,-0.0001,-0.0004,0.0028,0.0028,0.0028,0.0028,0,0.0104,0.0125,0.0136,0.0156,0.0163,0.0179,0.0174,0.0177,0.0163,0.0155,0.015,0.0116,0.0104,0.0091,0.0075,0.007,0.0053,0.0034,0.0019,0.0032,0.0001,-0.0003,0.0032,0.0031,0.003,0.003,0,0,0.012,0.0158,0.0162,0.0185,0.0194,0.0208,0.0223,0.0235,0.0252,0.0222,0.0236,0.0202,0.0175,0.0165,0.0135,0.0107,0.0081,0.0076,0.0073,0.0052,0.0014,-0.0003,-0.0009,0.0058,0.0057,0.0057,-0.0007,0,0.0152,0.0209,0.0215,0.0262,0.029,0.0282,0.0305,0.0309,0.0301,0.0306,0.026,0.0256,0.0207,0.02,0.0163,0.0106,0.0073,0.01,0.0002,-0.0001,-0.0015,-0.0013,0.0033,-0.002,-0.0011,-0.0012,-0.0012,0,0.0189,0.0226,0.0284,0.0332,0.0343,0.0364,0.0399,0.0418,0.0413,0.0405,0.038,0.0341,0.03,0.0251,0.0152,0.0172,0.01,0.0045,0.0041,0.0009,-0.0025,-0.0033,-0.0028,-0.0019,-0.0019,-0.0018,-0.0018,0,0.0218,0.0274,0.0326,0.0342,0.0388,0.0412,0.0435,0.0448,0.0481,0.0466,0.0481,0.0411,0.0391,0.0286,0.0167,0.016,0.0052,0.0026,-0.0059,-0.0062,-0.0049,-0.0049,-0.0049,-0.0049,-0.0049,-0.0049,-0.0049,0,0.0255,0.0295,0.0346,0.0377,0.0445,0.0457,0.0524,0.0532,0.0559,0.0614,0.0536,0.0555,0.0398,0.0317,0.0193,0.0058,0.0067,-0.0051,-0.0079,-0.0032,-0.003,-0.005,-0.0049,-0.0051,-0.0051,-0.005,-0.005,0,0.0275,0.0308,0.0375,0.0437,0.0463,0.0512,0.0594,0.0646,0.0655,0.0722,0.0721,0.0662,0.0561,0.0395,0.0229,0.0107,-0.0032,-0.0085,-0.002,-0.0039,-0.0131,-0.0128,-0.0182,-0.0184,-0.0184,-0.0185,-0.0186,0,0.029,0.0327,0.0422,0.0474,0.0505,0.0583,0.0649,0.069,0.0755,0.08,0.0841,0.0759,0.0741,0.048,0.0243,0.0019,-0.003,-0.0109,-0.0119,-0.0123,-0.0145,-0.014,-0.0135,-0.0086,-0.0086,-0.0086,-0.0086,0,0.0315,0.0349,0.0411,0.0527,0.0605,0.0707,0.0801,0.087,0.0935,0.0996,0.1064,0.1052,0.0817,0.0604,0.027,0.0116,-0.0073,-0.0113,-0.0133,-0.0059,-0.0038,-0.0057,-0.0055,-0.0084,-0.0084,-0.0084,-0.0084,-0.0084,0.0331,0.0384,0.0475,0.0585,0.0688,0.0826,0.0931,0.1046,0.1175,0.1301,0.1237,0.1237,0.0962,0.057,0.0273,-0.0047,-0.0034,-0.0148,-0.0147,-0.0146,-0.0123,-0.0104,-0.0158,-0.0159,-0.0159,-0.016,-0.016,0,0.0377,0.0427,0.0531,0.0678,0.0828,0.0858,0.1035,0.1178,0.1366,0.144,0.1502,0.1256,0.0979,0.0648,0.0196,-0.0079,-0.0094,-0.0183,-0.0137,-0.0136,-0.0135,-0.0111,-0.0145,-0.0146,-0.0147,-0.0147,0,0,0.0398,0.0514,0.0581,0.0801,0.0894,0.1121,0.1241,0.143,0.1548,0.1668,0.1643,0.1538,0.1115,0.078,0.0397,0.0131,0.0065,0.0078,0.0102,0.0206,0.021,-0.0077,-0.0033,0,0,0,0,0]}],[{"header":{"parameterUnit":"m.s-1","parameterCategory":2,"la1":30.2991,"la2":30.254,"lo1":-89.0895,"lo2":-89.0444,"dy":0.0017,"dx":0.0017,"nx":28,"ny":28,"refTime":"2024-02-13T03:00:00:Z","depth":"4","parameterNumber":2,"parameterNumberName":"U-component_of_CURRENTS"},"data":[0,0,0,0,0,0,0,0,0,0,0,0,0,0,0,0,0,0,0,0,0,0,0,0,0,0,0,0,0,0,0,0,0,0,0,0,0,0,0,0,0,0,0,0,0,0,0,0,0,0,0,0,0,0,0,0,0,0,0.1016,0.1017,0,0.1067,0.1068,0.1068,0.1109,0.1109,0.111,0.111,0.1175,0.1176,0.1177,0,0,0,0,0,0,0,0,0,0,0,0,0,0.0954,0.0955,0.1016,0.1017,0.1018,0.1067,0.1068,0.1069,0.1109,0.1109,0.111,0.1111,0.1174,0.1176,0.1177,0,0,0,0,0,0,0,0,0,0,0,0,0,0.099,0.0955,0.1016,0.1045,0.1048,0.1067,0.1068,0.1069,0.1109,0.1109,0.111,0.1111,0.1174,0.1175,0.1177,0.1174,0,0,0.1183,0.1184,0,0,0,0,0,0,0,0,0.0988,0.0992,0.104,0.1043,0.1046,0.1084,0.107,0.1105,0.1109,0.1084,0.111,0.1111,0.1145,0.115,0.1156,0.1177,0.118,0.1183,0.1184,0.1185,0.1186,0,0,0,0,0,0,0,0.0985,0.099,0.1035,0.104,0.1044,0.1055,0.1061,0.1076,0.1109,0.1087,0.109,0.1097,0.1147,0.1154,0.1158,0.118,0.1183,0.1185,0.1186,0.1187,0.1283,0.1284,0,0,0,0,0,0,0.098,0.0988,0.1034,0.1037,0.1019,0.1056,0.1062,0.107,0.1109,0.1116,0.1096,0.1099,0.115,0.1156,0.116,0.1234,0.1185,0.1187,0.1188,0.1281,0.1283,0.1285,0,0,0,0,0,0,0.0979,0.0984,0.1032,0.1014,0.1021,0.1056,0.1064,0.1071,0.1104,0.1117,0.1124,0.1126,0.1151,0.1158,0.1202,0.1234,0.1188,0.1189,0.128,0.1282,0.1284,0.1334,0,0,0,0,0,0,0.0977,0.0983,0.0999,0.1014,0.1022,0.1059,0.1064,0.1071,0.1106,0.111,0.1144,0.1149,0.1152,0.1199,0.1204,0.1236,0.1191,0.1278,0.1281,0.1283,0.1331,0.1338,0.1344,0,0,0,0,0,0.0974,0.0987,0.0999,0.1006,0.1039,0.106,0.1065,0.1091,0.1107,0.1124,0.1153,0.115,0.1219,0.1202,0.1207,0.124,0.1277,0.128,0.1283,0.1328,0.1336,0.1344,0,0,0,0,0,0,0.097,0.0993,0.1007,0.1028,0.1051,0.1067,0.1089,0.1106,0.1141,0.1155,0.1167,0.1175,0.1226,0.1226,0.1206,0.1276,0.1248,0.1252,0.128,0.1288,0.1295,0.1309,0.1192,0,0,0,0,0,0.0975,0.0995,0.1015,0.1036,0.1049,0.1074,0.1092,0.111,0.1137,0.1155,0.1181,0.121,0.1238,0.1258,0.1279,0.1316,0.1322,0.1342,0.1348,0.1354,0.1369,0.1402,0.1413,0.1295,0.1295,0.1295,0,0,0.098,0.0997,0.1009,0.1038,0.1059,0.1083,0.1087,0.112,0.1153,0.1155,0.1216,0.1236,0.1254,0.1299,0.1321,0.1306,0.1391,0.1358,0.1362,0.1375,0.1407,0.1418,0.1428,0.1298,0.1297,0.1297,0,0,0.0992,0.1015,0.1033,0.1054,0.109,0.1106,0.1121,0.1155,0.1186,0.1236,0.1251,0.1294,0.1334,0.1357,0.1371,0.1427,0.1425,0.1435,0.1481,0.1513,0.1523,0.1532,0.1553,0.1563,0.1438,0.1438,0.1438,0,0.1001,0.1025,0.1043,0.1067,0.1091,0.1119,0.1147,0.1179,0.1228,0.1262,0.1264,0.1348,0.1363,0.1421,0.1446,0.1443,0.1458,0.1448,0.1522,0.153,0.1539,0.1558,0.1569,0.1441,0.144,0.144,0.144,0,0.1019,0.1049,0.1063,0.1104,0.1131,0.116,0.12,0.1244,0.1284,0.1317,0.1394,0.1419,0.1471,0.1481,0.1484,0.1555,0.1545,0.1525,0.15,0.1554,0.157,0.1581,0.1445,0.1444,0.1443,0.1442,0,0,0.1011,0.1065,0.1074,0.11,0.1155,0.1176,0.1239,0.1299,0.1352,0.1406,0.1473,0.1529,0.1555,0.1574,0.1585,0.1616,0.1684,0.1605,0.1605,0.1624,0.1757,0.1646,0.1646,0.168,0.1682,0.1684,0.1744,0,0.1024,0.1067,0.1098,0.1151,0.1175,0.1227,0.1282,0.1345,0.1404,0.1476,0.1523,0.1591,0.1586,0.1623,0.1656,0.1685,0.1715,0.167,0.1705,0.1706,0.1598,0.1655,0.1691,0.1752,0.1754,0.1756,0.1757,0,0.103,0.1059,0.1109,0.1176,0.1195,0.124,0.1334,0.1389,0.1491,0.1542,0.1618,0.1657,0.1738,0.1712,0.1793,0.1768,0.1776,0.1783,0.1784,0.1672,0.1614,0.1688,0.1775,0.1774,0.1773,0.1771,0.177,0,0.0999,0.1067,0.1107,0.113,0.1211,0.1261,0.1317,0.1417,0.1482,0.1597,0.1659,0.1741,0.1805,0.1832,0.1864,0.1841,0.1932,0.1891,0.1795,0.1787,0.1845,0.1835,0.194,0.194,0.194,0.194,0.1939,0,0.0984,0.1019,0.1103,0.1122,0.1188,0.1256,0.1348,0.1415,0.1532,0.1607,0.17,0.1766,0.1843,0.19,0.1899,0.1887,0.1963,0.182,0.1801,0.1864,0.1855,0.1852,0.1841,0.1942,0.1941,0.1941,0.194,0,0.0933,0.099,0.1038,0.1134,0.1173,0.1222,0.136,0.1418,0.1544,0.1644,0.169,0.1823,0.1893,0.1942,0.1994,0.193,0.1924,0.1895,0.1976,0.1958,0.1746,0.1737,0.1788,0.1785,0.1782,0.178,0.1778,0,0.0903,0.0924,0.103,0.1066,0.1115,0.1208,0.1268,0.1407,0.1472,0.1657,0.169,0.1821,0.1884,0.1879,0.1931,0.1923,0.1891,0.1873,0.1794,0.1757,0.1734,0.173,0.1725,0.1774,0.1773,0.1772,0.1771,0,0.0837,0.0889,0.0925,0.1001,0.1071,0.114,0.1242,0.1289,0.1441,0.1576,0.1655,0.1699,0.1777,0.1809,0.1828,0.1811,0.1875,0.1843,0.1847,0.1773,0.174,0.1719,0.1717,0.1762,0.1763,0.1764,0.1764,0,0.0786,0.0795,0.0855,0.0916,0.0992,0.1036,0.1113,0.1197,0.1285,0.1489,0.1511,0.164,0.1762,0.1753,0.1766,0.1751,0.1707,0.1628,0.1642,0.1654,0.1579,0.1516,0.1467,0,0,0,0,0,0.0725,0.0725,0.0766,0.0819,0.089,0.0939,0.1069,0.1152,0.1313,0.1326,0.1418,0.1479,0.1526,0.1599,0.1552,0.1687,0.17,0.1623,0.1612,0.1708,0.1719,0.1642,0,0,0,0,0,0,0.0679,0.0705,0.0724,0.0724,0.0743,0.0811,0.0887,0.1001,0.103,0.1201,0.1241,0.1367,0.1439,0.1524,0.1513,0.1532,0.1489,0.1708,0.1704,0.1702,0.1712,0.1721,0.1646,0,0,0,0,0]},{"header":{"parameterUnit":"m.s-1","parameterCategory":2,"la1":30.2991,"la2":30.254,"lo1":-89.0895,"lo2":-89.0444,"dy":0.0017,"dx":0.0017,"nx":28,"ny":28,"refTime":"2024-02-13T03:00:00:Z","depth":"4","parameterNumber":3,"parameterNumberName":"V-component_of_CURRENTS"},"data":[0,0,0,0,0,0,0,0,0,0,0,0,0,0,0,0,0,0,0,0,0,0,0,0,0,0,0,0,0,0,0,0,0,0,0,0,0,0,0,0,0,0,0,0,0,0,0,0,0,0,0,0,0,0,0,0,0,0,0.0367,0.0367,0,0.0349,0.0349,0.0349,0.0335,0.0334,0.0334,0.0334,0.0309,0.0309,0.0308,0,0,0,0,0,0,0,0,0,0,0,0,0,0.0359,0.036,0.0367,0.0367,0.0367,0.0349,0.0349,0.0349,0.0335,0.0334,0.0334,0.0334,0.0309,0.0309,0.0308,0,0,0,0,0,0,0,0,0,0,0,0,0,0.0354,0.036,0.0367,0.0358,0.0357,0.0349,0.0349,0.0349,0.0335,0.0334,0.0334,0.0334,0.031,0.0309,0.0308,0.0307,0,0,0.0305,0.0305,0,0,0,0,0,0,0,0,0.0355,0.0355,0.0359,0.0358,0.0357,0.0344,0.0337,0.0334,0.0335,0.0343,0.0334,0.0334,0.032,0.0319,0.0316,0.0306,0.0305,0.0305,0.0305,0.0305,0.0304,0,0,0,0,0,0,0,0.0355,0.0355,0.036,0.0359,0.0358,0.0344,0.0343,0.0336,0.0333,0.0342,0.0341,0.0339,0.032,0.0317,0.0315,0.0304,0.0305,0.0305,0.0304,0.0304,0.0284,0.0284,0,0,0,0,0,0,0.0359,0.0356,0.036,0.0359,0.0355,0.0344,0.0344,0.0348,0.0333,0.033,0.0339,0.0339,0.0318,0.0316,0.0314,0.0316,0.0305,0.0304,0.0303,0.0284,0.0284,0.0284,0,0,0,0,0,0,0.0359,0.036,0.0361,0.0357,0.0356,0.0345,0.035,0.0348,0.0347,0.0331,0.0328,0.0341,0.0318,0.0315,0.0311,0.0314,0.0303,0.0303,0.0284,0.0284,0.0284,0.0317,0,0,0,0,0,0,0.0359,0.0361,0.0368,0.0357,0.0356,0.0364,0.035,0.0348,0.0346,0.0345,0.0332,0.0329,0.0317,0.0312,0.031,0.0313,0.0302,0.0284,0.0284,0.0284,0.0315,0.0318,0.0319,0,0,0,0,0,0.0359,0.0371,0.0368,0.0369,0.0366,0.0365,0.0363,0.0354,0.0347,0.0352,0.0339,0.033,0.031,0.0312,0.0309,0.0312,0.0284,0.0284,0.0284,0.0315,0.0317,0.0319,0,0,0,0,0,0,0.0372,0.0371,0.0367,0.0379,0.0375,0.0363,0.0366,0.0358,0.0352,0.035,0.0333,0.033,0.0326,0.0314,0.0317,0.0304,0.0294,0.0293,0.0318,0.032,0.0322,0.0336,0.0301,0,0,0,0,0,0.0378,0.0388,0.0381,0.0391,0.039,0.0378,0.0377,0.0371,0.0362,0.0359,0.0349,0.0334,0.0323,0.0319,0.0308,0.0305,0.0284,0.0303,0.0305,0.0307,0.0315,0.028,0.028,0.0283,0.0283,0.0283,0,0,0.0386,0.0386,0.0392,0.0394,0.039,0.0395,0.0377,0.0378,0.0384,0.0358,0.0362,0.0343,0.0323,0.0319,0.0316,0.0311,0.0294,0.0306,0.0308,0.0316,0.028,0.028,0.0279,0.0283,0.0283,0.0283,0,0,0.0405,0.0406,0.042,0.042,0.0417,0.0411,0.0413,0.0403,0.04,0.0399,0.0379,0.0363,0.035,0.0335,0.0325,0.0331,0.0305,0.0325,0.0348,0.0314,0.0313,0.0313,0.0284,0.028,0.0326,0.0326,0.0326,0,0.0414,0.0433,0.0423,0.0435,0.0441,0.042,0.0435,0.0428,0.0419,0.0419,0.0405,0.0376,0.0357,0.0348,0.0348,0.0336,0.0314,0.0342,0.0317,0.0316,0.0315,0.0285,0.0281,0.0328,0.0328,0.0328,0.0327,0,0.0441,0.0458,0.0466,0.0476,0.0479,0.0489,0.0479,0.0479,0.0468,0.0457,0.0445,0.0413,0.0397,0.0383,0.0369,0.0353,0.0339,0.0323,0.0313,0.0316,0.0285,0.028,0.033,0.033,0.0329,0.0329,0,0,0.046,0.0483,0.0487,0.0504,0.0504,0.0512,0.0519,0.0522,0.053,0.0503,0.0506,0.0472,0.0448,0.0435,0.0407,0.0376,0.0344,0.0351,0.0348,0.0327,0.0271,0.0255,0.0248,0.0322,0.0322,0.0321,0.0252,0,0.0486,0.0525,0.0526,0.0562,0.0581,0.057,0.0583,0.0579,0.0566,0.0562,0.0517,0.0507,0.0469,0.046,0.0422,0.0367,0.0333,0.0364,0.0268,0.0265,0.0254,0.0242,0.0319,0.0248,0.0247,0.0246,0.0245,0,0.0515,0.054,0.0584,0.0617,0.0624,0.064,0.0658,0.0667,0.0649,0.0637,0.0607,0.057,0.0525,0.0489,0.0391,0.0413,0.0349,0.0299,0.0294,0.0267,0.024,0.0243,0.0236,0.0237,0.0237,0.0238,0.0239,0,0.0542,0.0581,0.0622,0.0633,0.0662,0.0682,0.0695,0.0693,0.0711,0.0685,0.0684,0.0618,0.059,0.0499,0.0392,0.039,0.0278,0.0261,0.0185,0.0183,0.0205,0.0206,0.0189,0.0189,0.019,0.019,0.019,0,0.0572,0.0606,0.0642,0.0666,0.0721,0.0722,0.0771,0.0771,0.0774,0.0795,0.0728,0.0718,0.059,0.0509,0.0406,0.0281,0.0285,0.0189,0.0163,0.0219,0.0223,0.0201,0.0203,0.0187,0.0188,0.0188,0.0189,0,0.0597,0.0619,0.0675,0.072,0.074,0.078,0.0833,0.0863,0.0854,0.0875,0.0869,0.0793,0.0682,0.0547,0.0396,0.0306,0.0184,0.0138,0.0214,0.0193,0.0108,0.0112,0.0047,0.0046,0.0045,0.0044,0.0043,0,0.0615,0.0647,0.0722,0.0761,0.0787,0.0846,0.089,0.0908,0.0936,0.0921,0.0931,0.0834,0.0763,0.0543,0.0395,0.0189,0.0159,0.0094,0.0094,0.0111,0.0092,0.0099,0.0105,0.0042,0.0042,0.0041,0.0041,0,0.0651,0.0682,0.0729,0.0814,0.0873,0.0941,0.0997,0.102,0.1033,0.1024,0.0975,0.0853,0.0725,0.0546,0.0382,0.0237,0.0134,0.0083,0.0084,0.0084,0.0104,0.0088,0.0095,0.0038,0.0038,0.0039,0.0039,0,0.0683,0.0725,0.0792,0.0861,0.0942,0.1008,0.1035,0.1058,0.1082,0.1047,0.1031,0.0883,0.0797,0.0571,0.0424,0.0272,0.0231,0.0181,0.0176,0.0178,0.023,0.0276,0.0241,0,0,0,0,0,0.0707,0.0755,0.0829,0.0912,0.099,0.104,0.1096,0.111,0.1114,0.1086,0.1056,0.0932,0.0699,0.0605,0.045,0.0402,0.0205,0.0214,0.0146,0.0019,0.0023,0.006,0,0,0,0,0,0,0.0726,0.08,0.0835,0.0939,0.1,0.1094,0.1135,0.1137,0.1116,0.1087,0.097,0.0895,0.0676,0.0793,0.045,0.0403,0.0337,0.0105,0.0102,0.0016,0.002,0.0023,0.0063,0,0,0,0,0]}]]